Weather History for Hurghada, Egypt

Change the Weather History Date:

Thursday, February 13, 2014

  Actual Average Record
Temperature  
Mean Temperature 67 °F -  
Max Temperature 83 °F 72 °F 83 °F (2014)
Min Temperature 51 °F 55 °F 48 °F (2005)
Cooling Degree Days 2    
Growing Degree Days 17 (Base 50)    
Moisture  
Dew Point 50 °F    
Average Humidity 51    
Maximum Humidity 77    
Minimum Humidity 26    
Precipitation  
Precipitation 0.00 in - - ()
Sea Level Pressure  
Sea Level Pressure 29.92 in    
Wind  
Wind Speed 2 mph ()    
Max Wind Speed 9 mph    
Max Gust Speed -    
Visibility 6.0 miles    
Events      
Averages and records for this station are not official NWS values.
T = Trace of Precipitation, MM = Missing Value Source: Averaged Metar Reports

Daily Weather History Graph

Daily Weather History Graph

Search for Another Location

Airport:

Trip Planner

Search our weather history database for the weather conditions in past years. The results will help you decide how hot, cold, wet, or windy it might be!

Date:

Astronomy

Feb. 13, 2014 Rise Set
Actual Time 6:23 AM EET 5:35 PM EET
Civil Twilight 5:59 AM EET 5:59 PM EET
Nautical Twilight 5:31 AM EET 6:26 PM EET
Astronomical Twilight 5:04 AM EET 6:53 PM EET
Moon 4:25 PM EET (2/13) 5:01 AM EET (2/13)
Length of Visible Light 11h 59m
Length of Day
11h 11m
Waxing Gibbous, 98% of the Moon is Illuminated
Feb 13
Waxing Gibbous
Feb 15
Full
Feb 22
Last Quarter
Mar 1
New
Mar 8
First Quarter

Hourly Weather History & Observations

Time (EET) Temp. Heat Index Dew Point Humidity Pressure Visibility Wind Dir Wind Speed Gust Speed Precip Events Conditions
12:00 AM 55.4 °F - 44.6 °F 67% 29.95 in - Calm Calm - N/A   Clear
1:00 AM 55.4 °F - 39.2 °F 54% 29.92 in - Calm Calm - N/A   Clear
2:00 AM 55 °F - 38 °F 41% 29.93 in 6 mi Calm Calm - -  
2:00 AM 55.4 °F - 37.4 °F 51% 29.92 in - Calm Calm - N/A   Clear
3:00 AM 53.6 °F - 37.4 °F 54% 29.89 in - Calm Calm - N/A   Clear
4:00 AM 53.6 °F - 37.4 °F 54% 29.89 in - Calm Calm - N/A   Clear
5:00 AM 56 °F - 35 °F 33% 29.92 in 6 mi WNW 6.9 mph - -  
5:00 AM 55.4 °F - 35.6 °F 47% 29.92 in - WNW 6.9 mph - N/A   Clear
6:00 AM 53.6 °F - 33.8 °F 47% 29.92 in - WNW 3.5 mph - N/A   Clear
7:00 AM 53.6 °F - 30.2 °F 41% 29.95 in - Calm Calm - N/A   Clear
8:00 AM 59 °F - 33 °F 26% 29.97 in 6 mi Calm Calm - -  
8:00 AM 59.0 °F - 33.8 °F 39% 29.95 in - North - - N/A   Clear
9:00 AM 73.4 °F - 39.2 °F 29% 29.98 in - Calm Calm - N/A   Clear
10:00 AM 80.6 °F - 50.0 °F 34% 29.95 in - Calm Calm - N/A   Clear
11:00 AM 82 °F - 59 °F 35% 29.97 in 6 mi ESE 4.6 mph - -  
11:00 AM 82.4 °F 82.5 °F 59.0 °F 45% 29.95 in - ESE 4.6 mph - N/A   Clear
12:00 PM 82.4 °F 82.9 °F 60.8 °F 48% 29.95 in - SE 6.9 mph - N/A   Clear
1:00 PM 82.4 °F 82.9 °F 60.8 °F 48% 29.89 in - ESE 6.9 mph - N/A   Clear
2:00 PM 83 °F - 62 °F 38% 29.90 in 6 mi ESE 6.9 mph - -  
2:00 PM 82.4 °F 83.4 °F 62.6 °F 51% 29.89 in - ESE 6.9 mph - N/A   Clear
3:00 PM 82.4 °F 82.9 °F 60.8 °F 48% 29.86 in - ESE 9.2 mph - N/A   Clear
4:00 PM 80.6 °F 81.8 °F 62.6 °F 54% 29.86 in - SE 6.9 mph - N/A   Clear
5:00 PM 80 °F - 62 °F 45% 29.88 in 6 mi SE 6.9 mph - -  
5:00 PM 80.6 °F 81.8 °F 62.6 °F 54% 29.86 in - SE 6.9 mph - N/A   Clear
6:00 PM 71.6 °F - 60.8 °F 69% 29.89 in - SSE 4.6 mph - N/A   Clear
7:00 PM 71.6 °F - 60.8 °F 69% 29.89 in - SSE 6.9 mph - N/A   Clear
8:00 PM 69 °F - 60 °F 66% 29.92 in 6 mi SSE 3.5 mph - -  
8:00 PM 69.8 °F - 60.8 °F 73% 29.92 in - SSE 3.5 mph - N/A   Clear
10:00 PM 64.4 °F - 57.2 °F 77% 29.92 in - WNW 8.1 mph - N/A   Clear
11:00 PM 61 °F - 54 °F 70% 29.92 in 6 mi Calm Calm - -  
11:00 PM 60.8 °F - 53.6 °F 77% 29.92 in - Calm Calm - N/A   Clear